ORBCOMM-X 1 21576U 91050C 26095.42852521 .00000452 00000+0 14599-3 0 9998 2 21576 98.3016 160.5162 0004149 40.2046 319.9451 14.43538782824275 ORBCOMM FM01 1 23545U 95017A 26095.29925603 .00010761 00000+0 98574-3 0 9999 2 23545 69.9615 63.0585 0007077 249.0906 110.9494 14.95118852656093 ORBCOMM FM02 1 23546U 95017B 26095.36295889 .00012633 00000+0 10931-2 0 9994 2 23546 69.9614 80.6925 0008467 248.9204 111.1049 14.97282988655798 ORBCOMM FM08 1 25112U 97084A 26095.55056202 .00002134 00000+0 61929-3 0 9995 2 25112 45.0142 43.0258 0007774 300.5948 59.4136 14.47080103483703 ORBCOMM FM10 1 25113U 97084B 26095.58070292 .00002210 00000+0 64373-3 0 9995 2 25113 45.0154 45.8409 0005706 274.4671 85.5529 14.46802159658847 ORBCOMM FM11 1 25114U 97084C 26095.56813429 .00002276 00000+0 66524-3 0 9993 2 25114 45.0140 47.0801 0006530 273.5006 86.5099 14.46536597483794 ORBCOMM FM12 1 25115U 97084D 26095.59512475 .00002065 00000+0 60714-3 0 9995 2 25115 45.0145 46.6659 0005541 274.4570 85.5648 14.46565283483594 ORBCOMM FM09 1 25116U 97084E 26095.58865282 .00002096 00000+0 61784-3 0 9994 2 25116 45.0149 47.9788 0006474 260.2039 99.8082 14.46383842483796 ORBCOMM FM05 1 25117U 97084F 26095.56292837 .00002392 00000+0 68795-3 0 9991 2 25117 45.0147 42.9119 0003353 288.3577 71.6910 14.47191489482948 ORBCOMM FM06 1 25118U 97084G 26095.27572664 .00002435 00000+0 69691-3 0 9993 2 25118 45.0144 43.6581 0002422 300.2755 209.3210 14.47376286483826 ORBCOMM FM07 1 25119U 97084H 26095.53489726 .00002228 00000+0 64090-3 0 9997 2 25119 45.0141 43.1497 0003964 279.3906 80.6498 14.47378536483852 ORBCOMM FM03 1 25158U 98007B 26095.57651462 .00001535 00000+0 57424-3 0 9991 2 25158 107.9616 16.5967 0042606 96.2845 264.3151 14.35370544465989 ORBCOMM FM04 1 25159U 98007C 26095.58140528 .00001449 00000+0 54318-3 0 9992 2 25159 107.9605 20.0212 0038531 93.2493 267.3056 14.35594036466172 ORBCOMM FM17 1 25413U 98046A 26095.57085927 .00001107 00000+0 42761-3 0 9998 2 25413 44.9952 316.9440 0002014 241.5849 118.4796 14.35801080445185 ORBCOMM FM18 1 25414U 98046B 26095.62718704 .00001644 00000+0 56744-3 0 9993 2 25414 44.9921 225.9861 0004170 295.8031 64.2388 14.39522293446375 ORBCOMM FM19 1 25415U 98046C 26095.41030910 .00001897 00000+0 65009-3 0 9991 2 25415 44.9919 229.4543 0003216 280.4695 117.7554 14.39351203446296 ORBCOMM FM20 1 25416U 98046D 26095.41360914 .00001352 00000+0 48992-3 0 9990 2 25416 44.9934 236.5698 0000946 230.8304 129.2460 14.37957522446318 ORBCOMM FM16 1 25417U 98046E 26095.59333939 .00001827 00000+0 62061-3 0 9997 2 25417 44.9923 223.1645 0003643 310.2521 49.8009 14.39918230446380 ORBCOMM FM15 1 25418U 98046F 26095.57497939 .00001658 00000+0 57162-3 0 9995 2 25418 44.9961 229.3012 0003218 311.4740 48.5832 14.39537467446360 ORBCOMM FM14 1 25419U 98046G 26095.44163607 .00001674 00000+0 57166-3 0 9996 2 25419 44.9942 227.2385 0002401 291.5001 68.5592 14.39980454446320 ORBCOMM FM13 1 25420U 98046H 26095.41329006 .00001470 00000+0 52271-3 0 9998 2 25420 44.9969 238.4250 0004581 292.9774 67.0591 14.38514337445301 ORBCOMM FM21 1 25475U 98053A 26095.35846504 .00001188 00000+0 43514-3 0 9992 2 25475 45.0094 325.1031 0001007 281.5983 78.4752 14.38073225439291 ORBCOMM FM22 1 25476U 98053B 26095.58009582 .00001406 00000+0 49387-3 0 9992 2 25476 45.0083 316.3195 0002571 260.6769 99.3789 14.39319006439383 ORBCOMM FM23 1 25477U 98053C 26095.03564578 .00001236 00000+0 44828-3 0 9990 2 25477 45.0094 328.2511 0001830 260.1157 99.9485 14.38342270439403 ORBCOMM FM24 1 25478U 98053D 26095.61398869 .00001413 00000+0 49926-3 0 9994 2 25478 45.0088 321.6111 0001639 271.5380 88.5281 14.38998228439555 ORBCOMM FM25 1 25479U 98053E 26095.31403953 .00001324 00000+0 47128-3 0 9996 2 25479 45.0081 321.3562 0003995 278.4582 81.5814 14.38957408439801 ORBCOMM FM26 1 25480U 98053F 26095.59963871 .00001081 00000+0 40164-3 0 9991 2 25480 45.0076 318.7122 0005951 294.4380 65.5847 14.37879029439727 ORBCOMM FM27 1 25481U 98053G 26095.36392511 .00001412 00000+0 49916-3 0 9996 2 25481 45.0065 321.2021 0000518 335.8341 24.2483 14.39003123439740 ORBCOMM FM28 1 25482U 98053H 26095.44236085 .00001453 00000+0 51126-3 0 9990 2 25482 45.0048 258.0136 0003594 320.6198 39.4389 14.39091755440445 ORBCOMM FM30 1 25980U 99065A 26095.55649836 .00001082 00000+0 40065-3 0 9999 2 25980 45.0304 145.0366 0004874 16.9037 343.1973 14.38041362376521 ORBCOMM FM31 1 25981U 99065B 26095.54411116 .00001060 00000+0 39421-3 0 9997 2 25981 45.0217 138.5334 0001859 38.0045 322.0935 14.37960829376072 ORBCOMM FM32 1 25982U 99065C 26095.57429081 .00000982 00000+0 37549-3 0 9992 2 25982 45.0143 156.9146 0003920 47.5342 312.5837 14.37023076376644 ORBCOMM FM33 1 25983U 99065D 26095.57415314 .00001424 00000+0 48434-3 0 9994 2 25983 45.0292 47.9360 0006929 84.6906 275.4734 14.40853977378221 ORBCOMM FM36 1 25984U 99065E 26095.42671465 .00001518 00000+0 53236-3 0 9990 2 25984 45.0380 144.9646 0004237 298.0165 62.0255 14.39058381376504 ORBCOMM FM35 1 25985U 99065F 26095.41641181 .00001275 00000+0 46494-3 0 9990 2 25985 45.0385 152.4662 0001517 40.2066 319.8895 14.37943706376838 ORBCOMM FM34 1 25986U 99065G 26095.59741901 .00001026 00000+0 38394-3 0 9995 2 25986 45.0377 152.1377 0003342 334.9606 25.1080 14.37842982376973 ORBCOMM FM38 1 33060U 08031A 26095.14028348 .00002579 00000+0 34145-3 0 9998 2 33060 48.4411 2.3131 0004814 224.1271 135.9262 14.82859508958057 ORBCOMM FM41 1 33061U 08031B 26095.19113054 .00002691 00000+0 35902-3 0 9990 2 33061 48.4447 10.9107 0003944 209.1187 301.4092 14.82386864957530 ORBCOMM FM29 1 33062U 08031C 26095.21631869 .00002683 00000+0 35655-3 0 9999 2 33062 48.4397 18.1678 0005531 207.4567 306.0193 14.82565574957456 ORBCOMM FM39 1 33063U 08031D 26095.58877120 .00002352 00000+0 32815-3 0 9990 2 33063 48.4406 44.0624 0006210 177.6125 182.4821 14.80931646957112 ORBCOMM FM37 1 33064U 08031E 26095.20841988 .00002537 00000+0 35021-3 0 9990 2 33064 48.4400 33.9462 0004966 197.5241 304.5390 14.81121027957315 ORBCOMM FM40 1 33065U 08031F 26095.17752969 .00003227 00000+0 41114-3 0 9994 2 33065 48.4421 12.8172 0006077 213.0206 292.6164 14.83803690957493 VESSELSAT 1 1 37840U 11058C 26095.44075647 .00000391 00000+0 68443-4 0 9997 2 37840 19.9609 125.3532 0013659 160.8380 199.2539 14.11426524747645 ORBCOMM FM109 1 40086U 14040A 26095.22555278 .00000823 00000+0 21071-3 0 9991 2 40086 47.0029 76.4205 0002461 261.4900 98.5707 14.58765157623692 ORBCOMM FM107 1 40087U 14040B 26095.30712220 .00000974 00000+0 24234-3 0 9994 2 40087 47.0047 76.8726 0001161 231.2388 128.8394 14.58852546623784 ORBCOMM FM106 1 40088U 14040C 26095.44595499 .00001418 00000+0 26277-3 0 9990 2 40088 47.0594 234.5671 0016360 342.8451 17.1885 14.70373390626474 ORBCOMM FM111 1 40089U 14040D 26095.55409534 .00003260 00000+0 36782-3 0 9996 2 40089 47.0014 43.3287 0028064 155.8060 204.4162 14.88510909633759 ORBCOMM FM104 1 40090U 14040E 26095.41420133 .00000634 00000+0 17643-3 0 9998 2 40090 47.0039 113.5339 0015089 101.2899 258.9682 14.57206073623237 ORBCOMM FM103 1 40091U 14040F 26095.36514384 .00000899 00000+0 22689-3 0 9994 2 40091 47.0049 77.3398 0001651 214.1130 145.9650 14.58756025606759 ORBCOMM FM114 1 41179U 15081A 26095.38030198 .00000838 00000+0 21388-3 0 9994 2 41179 47.0066 346.2045 0002525 237.2096 122.8546 14.58776344547120 ORBCOMM FM119 1 41180U 15081B 26095.44913101 .00000844 00000+0 21536-3 0 9999 2 41180 46.9998 255.2394 0001448 284.9923 75.0802 14.58717609548383 ORBCOMM FM105 1 41181U 15081C 26095.56040567 .00000346 00000+0 14156-3 0 9997 2 41181 47.0015 288.3610 0001922 204.2688 155.8102 14.45517398543041 ORBCOMM FM110 1 41182U 15081D 26095.09541932 .00001272 00000+0 30567-3 0 9991 2 41182 47.0038 347.0152 0002411 93.2987 266.8174 14.58791998546952 ORBCOMM FM118 1 41183U 15081E 26095.40402964 .00001339 00000+0 31990-3 0 9993 2 41183 47.0058 345.8772 0002715 49.5173 310.5949 14.58790442547105 ORBCOMM FM112 1 41184U 15081F 26095.47540743 .00001022 00000+0 25268-3 0 9999 2 41184 46.9987 254.0270 0002441 232.2338 127.8327 14.58787150548336 ORBCOMM FM113 1 41185U 15081G 26095.45270483 .00000885 00000+0 22372-3 0 9998 2 41185 47.0001 254.5070 0002095 240.2068 119.8610 14.58778824548315 ORBCOMM FM115 1 41186U 15081H 26095.24239673 .00000963 00000+0 21936-3 0 9994 2 41186 46.9977 89.8247 0001734 304.4076 55.6647 14.63173049550530 ORBCOMM FM108 1 41187U 15081J 26095.55238772 .00001184 00000+0 28710-3 0 9991 2 41187 47.0042 165.5864 0003489 233.9622 126.0940 14.58794515549476 ORBCOMM FM117 1 41188U 15081K 26095.44929219 .00001122 00000+0 27406-3 0 9996 2 41188 47.0005 164.7299 0003949 237.2423 122.8082 14.58789528549509 ORBCOMM FM116 1 41189U 15081L 26095.49865403 .00000965 00000+0 24065-3 0 9998 2 41189 47.0017 254.2842 0001130 102.8513 257.2499 14.58783270548321